Location: Bucquoy
(50.1391°N, 2.7097°E)
Time: 02:55:53
(UTC+00:00)

Cosmos 1315 Rocket - Pass Details

Date: 06 May 2021
Orbit: 530 x 567 km, 81.2° (Epoch: 22 June)

Event Time Altitude Azimuth Distance (km) Brightness Sun altitude
Rises 02:56:16 0° 341° (NNW) 2,694 6.7 -11.3°
Reaches altitude 10° 02:58:31 10° 333° (NNW) 1,801 5.7 -11.0°
Maximum altitude 03:02:10 37° 265° (W) 856 3.4 -10.6°
Enters shadow 03:05:44 11° 199° (SSW) 1,764 4.9 -10.1°
